Alpena, MI

5:29 PM EDT on July 20, 2017 (GMT -0400)
Alpena County Regional

Weather History for KAPN - October, 2014

Change the Weather History Date:

Saturday, October 25, 2014

  Actual Average Record
Temperature  
Mean Temperature 50 °F 43 °F  
Max Temperature 63 °F 52 °F 77 °F (1989)
Min Temperature 37 °F 34 °F 19 °F (1972)
Degree Days  
Heating Degree Days 15 22  
Month to date heating degree days 434 447  
Since 1 July heating degree days 781 804  
Cooling Degree Days 0 0  
Month to date cooling degree days 0 0  
Year to date cooling degree days 168 289  
Moisture  
Dew Point 41 °F    
Average Humidity 66    
Maximum Humidity 93    
Minimum Humidity 39    
Precipitation  
Precipitation 0.00 in 0.07 in 0.60 in (1991)
Month to date precipitation 1.92 2.14  
Year to date precipitation 27.97 23.84  
Snow  
Snow 0.00 in 0.00 in 0.90 in (1962)
Month to date snowfall 0.0 0.2  
Since 1 July snowfall 0.0 0.2  
Snow Depth 0.00 in    
Sea Level Pressure  
Sea Level Pressure 29.70 in    
Wind  
Wind Speed 12 mph (WSW)    
Max Wind Speed 21 mph    
Max Gust Speed 35 mph    
Visibility 10 miles    
Events      
T = Trace of Precipitation, MM = Missing Value Source: NWS Daily Summary

Daily Weather History Graph

Daily Weather History Graph

Search for Another Location

Airport or City:

Trip Planner

Search our weather history database for the weather conditions in past years. The results will help you decide how hot, cold, wet, or windy it might be!

Date:

Astronomy

Oct. 25, 2014 Rise Set
Actual Time 8:03 AM EDT 6:32 PM EDT
Civil Twilight 7:33 AM EDT 7:02 PM EDT
Nautical Twilight 6:58 AM EDT 7:37 PM EDT
Astronomical Twilight 6:24 AM EDT 8:11 PM EDT
Moon 9:44 AM EDT (10/25) 7:50 PM EDT (10/25)
Length of Visible Light 11h 29m
Length of Day
10h 29m
Waxing Crescent, 3% of the Moon is Illuminated
Oct 25
Waxing Crescent
Oct 30
First Quarter
Nov 6
Full
Nov 14
Last Quarter
Nov 22
New

Hourly Weather History & Observations

Time (EDT) Temp. Windchill Dew Point Humidity Pressure Visibility Wind Dir Wind Speed Gust Speed Precip Events Conditions
12:05 AM 39.9 °F 36.7 °F 39.0 °F 97% 29.86 in 10.0 mi SSW 4.6 mph - N/A   Clear
12:54 AM 37.0 °F 34.5 °F 36.0 °F 96% 29.86 in 9.0 mi SSW 3.5 mph - N/A   Clear
1:54 AM 46.0 °F 43.9 °F 45.0 °F 96% 29.82 in 7.0 mi SW 4.6 mph - N/A   Clear
2:54 AM 46.0 °F 43.1 °F 44.1 °F 93% 29.80 in 7.0 mi SSW 5.8 mph - N/A   Mostly Cloudy
3:54 AM 46.0 °F 44.8 °F 44.1 °F 93% 29.77 in 10.0 mi SSW 3.5 mph - N/A   Clear
4:54 AM 46.9 °F - 44.1 °F 90% 29.74 in 10.0 mi SSW 9.2 mph - N/A   Overcast
5:34 AM 50.0 °F - 46.0 °F 86% 29.71 in 10.0 mi SW 9.2 mph - N/A   Overcast
5:54 AM 51.1 °F - 46.9 °F 86% 29.72 in 10.0 mi SW 9.2 mph - N/A   Overcast
6:29 AM 52.0 °F - 48.0 °F 86% 29.69 in 10.0 mi WSW 12.7 mph 21.9 mph N/A   Mostly Cloudy
6:39 AM 53.1 °F - 48.0 °F 83% 29.69 in 10.0 mi WSW 9.2 mph 19.6 mph N/A   Mostly Cloudy
6:52 AM 53.6 °F - 48.2 °F 82% 29.68 in 10.0 mi SW 10.4 mph 18.4 mph N/A   Overcast
6:54 AM 53.1 °F - 48.0 °F 83% 29.68 in 10.0 mi SW 11.5 mph 18.4 mph N/A   Overcast
7:13 AM 53.1 °F - 48.9 °F 86% 29.67 in 10.0 mi WSW 11.5 mph - N/A   Overcast
7:47 AM 53.1 °F - 48.9 °F 86% 29.67 in 10.0 mi WSW 8.1 mph 17.3 mph N/A   Mostly Cloudy
7:54 AM 52.0 °F - 48.9 °F 89% 29.67 in 10.0 mi WSW 6.9 mph - N/A   Scattered Clouds
8:54 AM 53.1 °F - 48.9 °F 86% 29.68 in 8.0 mi WSW 6.9 mph - N/A   Clear
9:54 AM 57.0 °F - 48.9 °F 74% 29.67 in 10.0 mi West 9.2 mph 19.6 mph N/A   Clear
10:54 AM 60.1 °F - 46.0 °F 60% 29.68 in 10.0 mi West 13.8 mph 20.7 mph N/A   Clear
11:54 AM 62.1 °F - 41.0 °F 46% 29.65 in 10.0 mi WNW 16.1 mph 27.6 mph N/A   Clear
12:54 PM 63.0 °F - 37.9 °F 40% 29.65 in 10.0 mi WNW 17.3 mph 28.8 mph N/A   Partly Cloudy
1:54 PM 62.1 °F - 37.0 °F 39% 29.63 in 10.0 mi WNW 18.4 mph 28.8 mph N/A   Clear
2:54 PM 61.0 °F - 36.0 °F 39% 29.64 in 10.0 mi WNW 13.8 mph 27.6 mph N/A   Clear
3:54 PM 60.1 °F - 36.0 °F 41% 29.65 in 10.0 mi West 17.3 mph 27.6 mph N/A   Partly Cloudy
4:54 PM 57.9 °F - 35.1 °F 42% 29.66 in 10.0 mi West 19.6 mph 28.8 mph N/A   Partly Cloudy
5:54 PM 55.9 °F - 35.1 °F 45% 29.67 in 10.0 mi WNW 13.8 mph 23.0 mph N/A   Partly Cloudy
6:54 PM 54.0 °F - 34.0 °F 47% 29.67 in 10.0 mi West 8.1 mph - N/A   Clear
7:54 PM 53.1 °F - 34.0 °F 48% 29.71 in 10.0 mi NW 12.7 mph 24.2 mph N/A   Clear
8:54 PM 51.1 °F - 30.9 °F 46% 29.73 in 10.0 mi NW 11.5 mph 18.4 mph N/A   Clear
9:54 PM 51.1 °F - 30.0 °F 44% 29.72 in 10.0 mi WNW 12.7 mph 20.7 mph N/A   Clear
10:54 PM 51.1 °F - 30.0 °F 44% 29.71 in 10.0 mi WNW 10.4 mph 19.6 mph N/A   Clear
11:54 PM 50.0 °F - 30.9 °F 48% 29.71 in 10.0 mi WNW 12.7 mph 23.0 mph N/A   Clear